User: anonymous   Login
Location: *
(44.1392°N, 4.8079°E)
Time: 05:54:58
(UTC+00:00)
Language:

Lacrosse 5 rocket - Orbit

View from above orbital plane
View from above orbital plane
View from above satellite
View from above satellite

Ground track
Ground track

The orbit data is extracted from the following two-line orbital elements,

1 28647U 05016B   21261.49082907  .00000182  00000-0  28660-4 0  9997
2 28647  56.9975 177.0204 0118681 249.3588 109.4691 15.06566794128971
Epoch (UTC): 18 September 2021 11:46:47
Eccentricity: 0.0118681
inclination: 56.9975°
perigee height: 464 km
apogee height: 629 km
right ascension of ascending node: 177.0204°
argument of perigee: 249.3588°
revolutions per day: 15.06566794
mean anomaly at epoch: 109.4691°
orbit number at epoch: 12897

The dashed part of the orbit path shows where the satellite is in the earth's shadow,  

DLR